Theta_e
313 311 318 314 318 314 318 320 320 323 325 336 345 347 348 347 351 352 341 343 350 354 353 350 349 337 323 321 324 323 324 329 332 333 334 335 335 334 333 330 324 323 323 323 323 323 325 329 332
311 317 318 308 310 315 312 316 320 321 322 320 342 348 345 346 348 344 341 343 342 351 353 351 349 338 324 322 323 323 324 328 331 334 334 335 335 333 333 331 326 323 323 323 324 325 328 331 335
315 320 315 311 309 309 310 314 317 320 318 329 348 348 348 348 352 341 341 339 340 347 353 348 350 339 326 323 323 323 324 327 332 333 333 333 334 332 333 331 326 324 324 325 327 330 332 333 333
316 313 311 315 311 309 311 314 313 314 314 315 323 331 353 348 351 341 341 342 343 352 353 346 349 340 328 324 324 323 323 326 328 331 332 331 331 335 333 327 325 325 327 329 331 332 333 333 332
317 310 315 314 315 310 311 311 311 312 313 314 317 317 352 350 346 341 346 346 355 356 355 345 348 341 331 324 325 323 324 324 326 327 328 329 333 335 328 325 326 328 332 333 334 334 331 326 323
315 311 316 315 314 313 312 312 311 312 313 312 318 326 349 346 349 349 352 355 357 357 352 352 348 342 334 324 326 325 324 326 327 329 330 330 333 331 325 326 329 333 335 335 332 329 324 325 331
313 315 318 317 318 318 317 315 316 313 314 317 317 350 357 355 352 355 354 356 356 355 352 354 349 343 336 325 327 326 327 328 328 329 330 329 329 324 326 327 331 334 333 329 326 324 329 334 338
309 310 316 317 319 318 317 315 315 316 318 316 318 346 360 356 355 355 355 355 355 355 353 353 350 344 335 325 328 329 329 330 329 330 329 328 325 325 327 330 333 333 327 324 326 330 335 338 341
309 309 312 314 316 316 314 314 316 316 315 316 317 322 329 355 354 355 354 354 353 353 353 352 349 346 339 327 329 330 331 330 329 329 327 326 326 328 330 331 329 326 323 325 328 334 340 343 344
307 307 310 310 313 313 313 314 314 315 315 315 318 330 352 354 354 354 354 353 352 351 351 351 350 347 341 328 331 333 334 333 329 327 326 327 328 329 329 327 327 329 329 330 339 348 347 345 348
308 309 309 310 310 310 312 313 314 315 314 315 317 325 345 353 354 354 354 352 350 350 349 350 351 348 341 334 334 335 335 332 328 327 325 326 326 326 326 330 332 333 332 334 341 349 347 347 346
311 310 309 308 310 309 310 311 312 313 313 314 315 323 343 338 343 351 353 351 348 348 348 349 350 348 341 332 333 336 335 331 329 328 327 325 325 327 337 339 339 338 337 337 350 350 348 346 345
312 312 311 311 310 308 308 309 310 311 312 314 315 320 331 334 336 339 351 350 348 348 348 349 350 347 340 334 334 337 335 330 328 329 328 329 337 340 340 339 339 340 341 344 351 349 347 344 341
313 312 312 311 310 309 309 309 310 311 312 314 316 325 327 332 333 332 334 348 347 348 349 350 349 345 338 334 336 337 334 330 329 329 328 335 341 343 343 338 340 341 344 349 348 347 341 339 343
313 313 311 312 311 311 309 312 311 312 311 313 316 319 320 326 332 333 333 342 345 346 347 347 346 343 338 336 336 336 333 329 328 329 333 338 341 341 341 339 337 342 346 348 347 343 338 342 341
311 311 313 312 315 314 311 313 313 312 312 312 313 315 321 327 330 337 335 343 344 343 344 345 345 343 340 338 337 335 331 327 327 331 338 341 343 341 341 341 346 347 347 346 346 340 340 341 336
309 313 315 315 315 316 316 316 316 315 314 315 311 312 320 336 337 336 336 344 342 340 341 342 341 341 340 337 336 333 328 326 332 338 340 342 343 340 341 346 347 347 346 345 342 340 340 331 330
312 313 313 315 313 313 316 316 315 315 314 314 312 310 313 331 338 336 341 345 341 339 339 339 339 338 336 335 334 330 327 332 340 342 344 342 343 342 341 348 346 345 345 343 340 338 328 327 330
313 314 315 315 312 316 316 315 316 314 314 314 313 309 310 313 325 341 342 345 341 339 338 339 338 338 337 334 335 335 338 340 342 343 344 343 345 347 349 347 345 344 344 342 338 327 323 323 326
313 314 315 313 313 316 316 316 313 313 314 314 313 313 309 313 326 342 343 344 341 339 339 339 338 337 335 333 338 340 343 345 345 344 343 343 345 348 348 347 345 343 340 335 332 326 318 320 322
315 315 315 314 313 312 314 314 314 314 313 313 313 311 309 312 325 332 339 346 342 341 344 341 338 338 337 337 344 345 347 346 346 346 346 347 347 347 346 344 342 339 334 328 328 323 320 319 318
316 314 315 314 314 314 314 315 313 313 312 312 312 311 310 319 327 329 336 342 341 341 345 345 340 346 344 343 347 347 345 344 343 346 346 346 345 344 343 341 336 332 326 322 322 320 318 319 318
318 315 314 316 314 311 312 315 312 310 312 312 311 310 310 311 333 332 338 340 338 338 342 347 344 348 348 347 347 346 344 344 343 343 343 341 339 338 335 333 330 322 320 319 318 318 318 319 319
318 315 313 307 307 311 309 311 311 310 310 310 311 311 311 312 340 338 335 339 337 335 338 339 343 345 347 346 345 345 344 340 338 337 336 333 331 329 327 324 318 316 317 318 318 318 318 318 318
315 314 318 316 310 313 311 315 312 311 313 313 310 310 311 314 332 341 339 334 335 330 329 338 343 345 341 342 345 343 344 344 342 336 333 328 326 324 322 320 316 315 316 319 319 319 318 317 317
317 316 318 318 316 316 315 315 314 313 316 316 317 317 310 313 330 339 340 335 334 331 331 335 339 341 338 328 343 342 342 340 339 338 333 329 325 322 320 316 315 316 317 320 320 319 318 318 318
318 317 316 319 315 318 315 314 314 316 317 317 317 316 315 313 327 337 337 339 336 337 334 334 335 339 334 335 342 340 338 340 339 333 329 326 322 319 317 317 317 319 319 319 319 319 318 318 318
316 316 317 316 319 318 319 320 318 318 319 318 317 316 316 316 319 337 336 337 340 338 334 331 332 332 335 333 340 339 338 339 335 332 328 323 320 317 317 317 318 320 320 319 318 318 318 318 316
316 315 314 312 315 317 321 319 317 318 320 320 317 316 315 316 327 338 336 335 341 338 336 332 331 332 335 341 341 336 334 335 332 329 326 322 319 317 318 317 319 320 320 319 317 318 318 316 313
315 316 313 314 317 317 318 317 316 318 321 319 316 315 314 314 321 337 342 336 344 343 344 336 335 332 338 341 338 335 335 332 329 327 323 319 318 317 316 318 320 320 320 319 319 319 318 316 315
Wind_Speed
13 7 3 3 3 4 3 7 3 4 3 3 8 6 13 9 8 6 6 30 29 32 27 24 26 23 22 24 23 24 26 28 29 28 26 24 21 19 17 15 14 14 13 12 11 10 8 7 4
12 3 3 2 5 2 6 5 10 3 5 7 7 4 5 6 3 6 5 33 32 32 30 29 31 29 26 26 25 24 26 29 29 27 25 23 19 17 15 13 12 12 11 10 9 8 6 4 2
6 1 4 4 4 7 6 5 1 3 6 4 4 4 6 4 7 4 14 31 32 39 35 36 36 34 29 28 28 27 26 27 27 26 24 21 18 15 14 12 11 11 10 9 7 5 3 2 3
2 4 4 4 8 6 5 1 4 5 6 9 4 6 2 14 15 20 22 24 20 34 41 43 40 36 33 31 29 28 28 27 26 25 22 20 18 16 13 11 11 10 9 7 5 3 3 4 6
3 3 1 2 5 5 4 6 3 5 4 5 3 8 5 3 17 23 13 18 23 34 41 45 44 38 35 33 30 29 28 27 26 24 22 20 18 15 14 12 11 9 7 5 3 2 4 6 7
3 3 2 5 5 5 5 5 3 4 4 9 4 11 3 7 22 23 23 27 27 31 41 41 43 39 36 34 32 30 28 26 25 23 21 20 18 16 14 13 11 8 5 2 1 3 5 6 8
5 4 3 3 3 5 4 1 1 4 5 6 7 6 2 2 15 25 29 30 32 32 36 34 39 39 37 35 33 30 28 26 24 23 21 19 18 16 15 13 10 7 4 1 3 4 6 8 10
4 4 3 3 2 4 5 7 4 4 10 7 3 4 7 9 22 25 26 29 29 32 36 35 37 39 36 35 33 30 27 25 23 22 20 19 18 16 14 11 8 5 2 2 3 5 7 9 12
3 3 4 4 2 5 7 7 2 4 5 10 4 18 21 29 27 26 23 23 27 26 31 33 41 41 37 35 33 29 26 24 23 21 20 19 18 16 13 9 6 3 2 2 4 6 8 8 10
4 3 5 7 4 7 15 5 14 6 9 9 10 21 21 36 33 28 25 25 29 31 30 31 35 43 40 37 33 31 27 24 24 22 20 19 16 14 10 8 5 3 1 2 6 8 7 5 11
1 5 7 7 11 9 15 10 8 8 6 5 8 7 5 2 18 25 30 34 38 32 31 30 31 36 42 37 35 31 28 25 23 21 20 18 16 13 11 8 5 2 1 2 4 8 9 10 10
3 7 5 6 7 6 9 7 12 7 9 7 7 4 6 7 8 11 25 28 33 36 31 31 31 38 41 40 36 33 28 26 24 22 20 18 16 14 10 7 4 3 3 1 5 4 6 8 10
4 3 8 9 11 8 10 8 10 10 10 7 6 5 3 7 9 10 20 24 26 32 32 32 33 41 40 40 38 33 28 26 23 21 19 17 14 10 7 4 3 3 2 7 6 3 6 9 10
5 6 10 7 8 6 7 8 2 2 7 5 3 6 6 10 11 5 13 20 29 30 33 33 37 41 43 40 36 33 28 25 23 20 18 16 11 7 7 4 5 9 9 8 5 4 6 8 10
4 7 7 2 5 5 9 16 12 2 7 1 3 7 6 9 7 10 10 24 32 40 34 36 37 40 42 38 35 31 27 25 22 20 17 14 10 5 9 8 9 12 9 8 6 4 6 8 10
5 3 4 6 6 4 4 16 10 10 13 9 5 7 8 8 9 14 12 26 26 22 36 35 36 40 40 36 34 30 27 25 21 20 18 14 8 10 11 13 14 12 10 6 4 3 7 8 9
4 5 4 5 3 2 4 15 14 13 10 11 8 5 7 6 8 17 15 26 29 26 27 33 35 40 39 34 32 29 27 25 23 22 19 15 11 13 13 14 12 10 8 4 3 4 7 9 12
7 6 6 6 5 4 6 19 17 8 11 15 9 7 7 7 13 24 26 21 27 25 31 33 35 39 36 33 31 28 26 25 24 21 17 16 15 13 15 15 13 9 6 4 3 7 11 17 25
7 9 15 13 9 3 13 14 16 14 14 19 10 8 8 9 10 24 32 16 26 28 33 35 36 38 36 34 31 27 24 23 19 17 17 20 17 16 16 15 11 8 4 2 5 13 17 23 30
11 13 14 12 10 7 9 15 18 17 13 18 10 12 9 6 10 15 27 24 26 35 36 39 38 36 33 31 31 26 24 19 20 20 22 21 18 17 15 13 11 6 3 4 11 14 20 15 11
7 10 13 14 10 5 8 12 10 18 13 17 6 10 8 11 12 13 13 27 22 27 31 35 37 35 31 32 30 26 25 24 25 27 24 20 20 16 14 12 10 7 6 9 12 11 11 12 8
12 9 16 12 6 7 6 13 16 10 18 16 8 6 9 8 11 12 12 15 25 26 27 36 36 28 29 32 33 36 27 24 20 29 24 21 17 16 13 11 10 10 11 10 11 11 13 17 19
8 11 10 7 6 3 1 1 18 5 18 18 7 9 10 10 14 14 19 31 40 36 41 38 36 32 24 21 34 33 27 29 31 28 24 20 17 15 14 13 13 13 13 13 13 13 13 12 14
13 4 4 4 2 5 5 6 19 7 7 6 6 2 9 10 15 16 22 29 29 34 30 38 34 26 26 17 23 36 37 36 34 29 26 22 19 18 16 15 14 14 15 16 17 17 17 17 15
2 4 2 3 2 6 4 7 9 15 12 11 14 10 8 10 10 12 17 18 24 25 25 26 30 31 20 10 16 32 39 40 37 33 29 27 23 20 18 16 16 16 17 19 19 18 19 17 17
10 6 4 5 3 3 6 7 5 4 7 11 11 11 6 9 8 13 17 20 27 28 22 24 25 28 35 17 29 31 36 39 36 32 30 26 24 22 20 18 18 18 19 21 19 20 20 16 16
1 4 3 3 3 1 4 7 8 4 10 16 17 15 10 10 8 12 15 17 26 27 29 32 32 33 41 47 32 34 37 37 34 30 27 26 24 22 20 19 19 20 20 20 20 21 19 15 13
5 5 3 2 3 4 4 5 7 7 12 15 19 18 19 13 13 10 14 16 25 27 30 35 40 39 39 36 27 37 37 36 33 30 28 27 25 24 22 21 20 20 18 20 20 19 17 17 14
1 1 1 4 3 3 3 4 3 3 3 10 16 16 18 20 18 10 14 18 28 28 28 36 30 32 36 33 36 32 33 34 32 31 30 29 26 25 24 23 21 21 21 20 19 18 15 15 13
7 4 6 3 2 4 2 7 3 2 4 7 15 17 21 21 23 11 16 15 21 29 26 29 24 30 26 27 33 36 38 37 34 32 32 30 28 25 24 24 22 21 21 19 18 17 13 13 10
Wind_Direction
339 333 320 57 75 64 242 244 233 244 357 3 114 148 181 155 166 218 206 182 162 158 179 183 184 179 173 165 161 158 157 155 152 151 148 145 144 141 140 138 138 137 138 139 137 136 135 131 121
340 44 73 84 113 157 251 229 231 171 292 304 209 157 163 195 159 281 196 191 180 166 185 192 187 180 175 169 163 163 160 157 154 153 151 150 148 144 142 142 142 140 141 139 138 134 130 121 89
346 24 100 135 163 200 223 206 116 339 334 302 332 228 165 195 164 220 198 187 188 184 188 192 189 180 175 173 167 166 165 162 158 158 156 155 152 150 148 150 149 148 145 142 137 129 105 60 11
359 20 32 124 225 263 225 102 46 2 326 338 356 296 246 191 162 193 202 216 222 179 183 187 187 182 175 175 170 169 168 168 165 164 163 162 158 156 154 158 155 153 146 135 127 97 53 3 351
61 53 103 242 249 265 263 298 70 304 265 281 293 269 238 242 189 176 196 200 174 168 177 182 185 181 177 175 174 173 170 171 170 169 167 165 163 162 161 164 160 156 146 134 116 56 10 358 1
52 90 59 245 253 271 301 289 120 254 257 289 336 283 209 206 183 174 166 164 169 167 173 177 184 180 179 177 177 175 172 174 173 172 172 169 167 167 168 166 164 164 154 130 46 9 13 12 7
115 93 221 252 263 323 280 351 76 324 349 304 304 267 297 159 161 152 161 167 168 169 172 174 183 183 180 180 179 177 175 175 176 176 174 171 170 169 170 168 170 169 162 107 20 16 9 7 1
107 92 309 269 256 266 271 349 287 29 312 304 250 281 261 166 149 142 152 164 165 171 173 174 183 183 182 181 183 180 177 177 178 177 175 173 171 170 171 170 177 179 167 79 41 7 3 357 3
107 62 235 249 276 279 297 334 138 269 317 313 282 300 252 150 145 140 153 163 160 173 176 175 180 184 183 184 184 182 181 181 179 179 176 175 173 172 173 176 179 184 137 40 12 360 353 348 8
109 142 234 205 224 269 282 252 296 299 309 291 327 353 151 152 155 157 169 178 176 175 181 180 180 183 183 185 184 185 183 184 181 180 179 178 175 174 180 174 183 186 113 22 34 12 23 59 70
175 214 236 257 255 255 276 280 270 268 261 262 307 337 14 286 177 169 178 184 183 175 176 185 181 182 184 183 186 185 186 186 183 182 182 180 177 177 178 163 164 194 208 19 34 63 60 67 58
298 257 256 303 310 307 284 277 279 240 254 238 268 269 178 259 276 234 176 183 182 176 181 183 181 184 186 187 187 186 187 187 186 186 186 183 181 179 179 180 186 225 286 182 117 75 66 68 50
211 330 310 287 291 275 276 267 259 262 251 243 258 250 228 242 228 295 261 187 187 176 181 186 181 184 185 188 187 188 188 190 188 189 186 186 180 176 187 205 242 234 173 158 138 99 71 60 56
292 281 289 298 284 270 276 271 272 262 236 239 230 157 192 240 211 207 313 225 192 181 183 184 186 184 187 189 189 188 189 191 193 191 188 189 196 210 220 205 145 147 146 148 140 103 73 55 63
257 300 314 302 316 302 314 299 236 2 321 106 147 185 231 262 182 201 272 268 215 188 179 184 184 188 190 190 190 190 189 193 195 190 187 190 205 199 195 168 160 161 160 145 136 87 59 69 69
343 20 1 300 355 328 29 280 317 8 329 326 245 188 200 245 233 211 253 285 238 205 175 179 182 191 192 192 191 190 190 193 196 192 188 191 194 185 165 159 154 166 153 160 126 78 73 72 73
339 269 275 311 284 249 84 285 292 328 314 315 286 202 193 216 197 238 240 274 225 197 179 178 185 191 192 193 192 191 191 193 193 194 194 192 178 170 159 159 162 162 163 163 114 76 82 73 95
269 284 269 274 278 304 260 269 290 316 304 306 303 266 184 202 198 198 216 238 210 197 184 179 189 191 191 190 189 191 190 192 196 197 196 182 174 174 176 166 161 168 173 157 117 103 96 112 121
260 268 268 272 272 233 272 275 298 306 298 295 300 269 209 202 198 204 207 204 198 194 183 184 190 189 185 184 180 183 185 195 202 199 185 169 164 163 162 158 160 168 186 172 155 124 103 120 126
245 247 257 268 255 183 258 277 287 284 272 277 277 271 226 178 171 175 191 208 195 183 183 186 191 186 185 181 181 181 179 178 187 185 169 168 170 168 168 169 170 163 171 166 148 139 120 125 142
242 243 261 269 284 262 259 274 279 286 287 275 247 243 233 193 184 190 179 175 183 179 180 189 190 184 186 187 180 166 162 151 143 147 151 155 163 165 168 166 160 157 165 152 157 155 143 126 101
260 228 252 268 280 278 151 286 280 287 277 271 249 237 241 195 186 182 169 161 172 187 187 186 188 178 183 186 171 164 153 141 147 147 145 149 160 161 162 163 153 150 149 140 142 139 133 135 114
260 261 263 277 278 303 215 305 276 304 287 280 251 218 230 194 187 180 171 179 182 193 199 185 181 171 164 171 171 157 146 151 149 145 147 151 155 157 156 153 146 149 142 132 129 133 138 135 123
252 304 338 30 43 262 223 227 285 250 254 287 279 222 230 208 191 187 185 177 184 184 189 193 181 163 151 158 173 170 162 149 147 149 150 150 151 149 147 143 143 143 136 132 128 123 117 113 111
76 69 332 320 359 250 207 305 257 290 309 296 290 298 229 237 189 179 160 176 186 196 183 179 167 165 146 92 176 178 167 161 161 160 159 156 152 150 143 143 141 135 134 132 130 125 115 112 105
298 175 183 220 208 274 293 265 261 231 350 351 349 5 332 258 214 176 177 174 184 192 173 179 178 164 177 168 209 183 171 163 165 167 165 164 159 151 147 142 142 135 136 134 129 122 118 115 108
193 171 215 9 297 195 242 285 287 301 354 355 349 352 351 334 258 192 187 181 170 175 162 176 181 176 173 182 182 179 170 168 169 167 165 160 157 151 147 150 147 141 134 130 131 125 123 123 122
189 148 65 76 239 259 263 270 244 352 344 344 342 342 340 334 321 205 196 183 172 175 164 172 181 183 188 189 183 173 171 171 170 163 162 161 157 153 156 155 149 145 140 133 132 129 128 123 115
170 186 164 172 198 215 287 256 353 320 329 328 324 325 333 331 322 214 196 183 169 170 165 175 169 161 168 171 169 159 164 168 166 165 163 163 159 158 159 155 153 147 140 135 134 130 129 121 116
241 283 179 158 269 262 257 264 238 95 338 336 322 326 325 322 320 219 186 175 164 166 168 181 169 175 181 162 156 162 170 166 165 165 165 164 159 161 160 152 153 148 144 140 139 137 138 123 114